Location: ?p Thanh B�nh
(16.5833°N, 107.5333°E)
Time: 04:59:50
(UTC+00:00)

Ariane H10-3 - Pass Details

Date: 29 October 2020
Orbit: 302 x 30257 km, 4.1° (Epoch: 29 November)

Event Time Altitude Azimuth Distance (km) Brightness Sun altitude
Rises 12:05:04 0° 261° (W) 11,241 9.8 -25.4°
Reaches altitude 10° 12:19:03 10° 252° (WSW) 6,024 8.0 -28.8°
Maximum altitude 12:29:12 25° 202° (SSW) 1,939 4.8 -31.2°
Enters shadow 12:30:14 23° 184° (S) 1,735 4.4 -31.4°
